EN

Hourly Weather Labednik

Today, 26 July, Monday

Time Temperature Precipitation Wind Pressure Humidity
00:00 +19°C° 0 mm 3 mps 755 mmHg 79%
01:00 +19°C° 0 mm 3 mps 755 mmHg 77%
02:00 +19°C° 0 mm 3 mps 754 mmHg 78%
03:00 +18°C° 0 mm 3 mps 754 mmHg 78%
04:00 +18°C° 0 mm 3 mps 754 mmHg 79%
05:00 +19°C° 0 mm 3 mps 754 mmHg 76%
06:00 +21°C° 0 mm 3 mps 754 mmHg 73%
07:00 +22°C° 0 mm 4 mps 754 mmHg 69%
08:00 +23°C° 0 mm 4 mps 754 mmHg 66%
09:00 +25°C° 0 mm 5 mps 754 mmHg 62%
10:00 +26°C° 0 mm 5 mps 754 mmHg 59%
11:00 +27°C° 0 mm 5 mps 754 mmHg 57%
12:00 +28°C° 0 mm 6 mps 754 mmHg 55%
13:00 +28°C° 0 mm 5 mps 754 mmHg 58%
14:00 +27°C° 0.2 mm 5 mps 753 mmHg 62%
15:00 +27°C° 0.2 mm 5 mps 753 mmHg 66%
16:00 +26°C° 0.2 mm 5 mps 753 mmHg 71%
17:00 +25°C° 0.1 mm 5 mps 753 mmHg 77%
18:00 +22°C° 0.1 mm 4 mps 753 mmHg 83%
19:00 +21°C° 0.1 mm 3 mps 753 mmHg 89%
20:00 +20°C° 0.1 mm 3 mps 753 mmHg 91%
21:00 +19°C° 0.1 mm 3 mps 752 mmHg 93%
22:00 +19°C° 0.1 mm 3 mps 752 mmHg 94%
23:00 +19°C° 0 mm 2 mps 752 mmHg 95%

Tomorrow, 27 July, Tuesday

Time Temperature Precipitation Wind Pressure Humidity
00:00 +18°C° 0 mm 2 mps 752 mmHg 96%
01:00 +18°C° 0 mm 2 mps 752 mmHg 97%
02:00 +18°C° 0 mm 2 mps 752 mmHg 97%
03:00 +18°C° 0 mm 2 mps 752 mmHg 97%
04:00 +18°C° 0 mm 2 mps 751 mmHg 97%
05:00 +19°C° 0 mm 2 mps 751 mmHg 95%
06:00 +20°C° 0 mm 2 mps 751 mmHg 92%
07:00 +21°C° 0 mm 2 mps 751 mmHg 89%
08:00 +24°C° 0.3 mm 2 mps 751 mmHg 83%
09:00 +25°C° 0.3 mm 2 mps 751 mmHg 78%
10:00 +27°C° 0.3 mm 2 mps 751 mmHg 72%
11:00 +27°C° 0.4 mm 3 mps 751 mmHg 67%
12:00 +28°C° 0.4 mm 3 mps 751 mmHg 61%
13:00 +29°C° 0.4 mm 4 mps 752 mmHg 56%
14:00 +29°C° 0.2 mm 3 mps 751 mmHg 56%
15:00 +29°C° 0.2 mm 3 mps 751 mmHg 56%
16:00 +29°C° 0.2 mm 3 mps 751 mmHg 56%
17:00 +27°C° 0.7 mm 3 mps 751 mmHg 67%
18:00 +24°C° 0.7 mm 3 mps 752 mmHg 78%
19:00 +21°C° 0.7 mm 3 mps 752 mmHg 89%
20:00 +20°C° 0.1 mm 2 mps 752 mmHg 88%
21:00 +21°C° 0.1 mm 1 mps 752 mmHg 88%
22:00 +19°C° 0.1 mm 0 mps 753 mmHg 88%
23:00 +20°C° 0 mm 1 mps 752 mmHg 89%

Day after tomorrow, 28 July, Wednesday

Time Temperature Precipitation Wind Pressure Humidity
00:00 +20°C° 0 mm 1 mps 752 mmHg 89%
01:00 +19°C° 0 mm 2 mps 752 mmHg 90%
02:00 +19°C° 0 mm 2 mps 752 mmHg 91%
03:00 +18°C° 0 mm 2 mps 752 mmHg 91%
04:00 +18°C° 0 mm 2 mps 752 mmHg 92%
05:00 +20°C° 0 mm 2 mps 752 mmHg 88%
06:00 +21°C° 0 mm 2 mps 752 mmHg 84%
07:00 +22°C° 0 mm 3 mps 752 mmHg 79%
08:00 +25°C° 0 mm 3 mps 752 mmHg 72%
09:00 +26°C° 0 mm 3 mps 752 mmHg 65%
10:00 +27°C° 0 mm 3 mps 752 mmHg 57%
11:00 +27°C° 0 mm 3 mps 752 mmHg 58%
12:00 +27°C° 0 mm 3 mps 752 mmHg 58%
13:00 +27°C° 0 mm 3 mps 752 mmHg 58%
14:00 +26°C° 0 mm 3 mps 752 mmHg 61%
15:00 +26°C° 0 mm 3 mps 752 mmHg 64%
16:00 +25°C° 0 mm 2 mps 751 mmHg 66%
17:00 +24°C° 0 mm 2 mps 751 mmHg 70%
18:00 +23°C° 0 mm 2 mps 751 mmHg 74%
19:00 +23°C° 0 mm 1 mps 751 mmHg 77%
20:00 +21°C° 0 mm 2 mps 751 mmHg 77%
21:00 +21°C° 0 mm 2 mps 751 mmHg 76%
22:00 +20°C° 0 mm 2 mps 751 mmHg 76%
23:00 +20°C° 0.2 mm 2 mps 751 mmHg 81%

29 July, Thursday

Time Temperature Precipitation Wind Pressure Humidity
00:00 +19°C° 0.2 mm 2 mps 751 mmHg 86%
01:00 +19°C° 0.2 mm 2 mps 751 mmHg 91%
02:00 +18°C° 0 mm 2 mps 751 mmHg 91%
03:00 +18°C° 0 mm 3 mps 751 mmHg 92%
04:00 +18°C° 0 mm 3 mps 751 mmHg 93%
05:00 +19°C° 0 mm 3 mps 751 mmHg 88%
06:00 +20°C° 0 mm 3 mps 751 mmHg 83%
07:00 +21°C° 0 mm 4 mps 751 mmHg 79%
08:00 +22°C° 0 mm 4 mps 751 mmHg 72%
09:00 +23°C° 0 mm 5 mps 751 mmHg 66%
10:00 +25°C° 0 mm 5 mps 751 mmHg 60%
11:00 +26°C° 0 mm 5 mps 751 mmHg 56%
12:00 +26°C° 0 mm 5 mps 750 mmHg 52%
13:00 +27°C° 0 mm 6 mps 750 mmHg 49%
14:00 +26°C° 0 mm 6 mps 750 mmHg 50%
15:00 +26°C° 0 mm 6 mps 750 mmHg 52%
16:00 +26°C° 0 mm 6 mps 749 mmHg 53%
17:00 +25°C° 0 mm 5 mps 749 mmHg 56%
18:00 +23°C° 0 mm 4 mps 749 mmHg 60%
19:00 +21°C° 0 mm 4 mps 750 mmHg 63%
20:00 +20°C° 0 mm 3 mps 750 mmHg 69%
21:00 +19°C° 0 mm 2 mps 750 mmHg 75%
22:00 +18°C° 0 mm 1 mps 750 mmHg 81%
23:00 +17°C° 0 mm 2 mps 750 mmHg 82%

30 July, Friday

Time Temperature Precipitation Wind Pressure Humidity
00:00 +16°C° 0 mm 2 mps 750 mmHg 82%
01:00 +16°C° 0 mm 3 mps 750 mmHg 83%
02:00 +14°C° 0 mm 3 mps 750 mmHg 81%
03:00 +14°C° 0 mm 3 mps 750 mmHg 79%
04:00 +14°C° 0 mm 3 mps 750 mmHg 76%
05:00 +15°C° 0 mm 4 mps 750 mmHg 71%
06:00 +18°C° 0 mm 4 mps 750 mmHg 65%
07:00 +19°C° 0 mm 4 mps 750 mmHg 60%
08:00 +20°C° 0 mm 5 mps 750 mmHg 56%
09:00 +21°C° 0 mm 5 mps 750 mmHg 51%
10:00 +22°C° 0 mm 5 mps 750 mmHg 47%
11:00 +23°C° 0 mm 6 mps 749 mmHg 46%
12:00 +24°C° 0 mm 6 mps 749 mmHg 44%
13:00 +24°C° 0 mm 6 mps 749 mmHg 43%
14:00 +25°C° 0 mm 5 mps 748 mmHg 45%
15:00 +25°C° 0 mm 5 mps 748 mmHg 47%
16:00 +25°C° 0 mm 4 mps 748 mmHg 49%
17:00 +23°C° 0 mm 4 mps 748 mmHg 53%
18:00 +22°C° 0 mm 3 mps 748 mmHg 58%
19:00 +20°C° 0 mm 3 mps 748 mmHg 63%
20:00 +19°C° 0 mm 2 mps 748 mmHg 67%
21:00 +18°C° 0 mm 1 mps 748 mmHg 70%
22:00 +16°C° 0 mm 1 mps 748 mmHg 74%
23:00 +16°C° 0 mm 1 mps 748 mmHg 75%

31 July, Saturday

Time Temperature Precipitation Wind Pressure Humidity
00:00 +15°C° 0 mm 1 mps 748 mmHg 76%
01:00 +15°C° 0 mm 2 mps 748 mmHg 78%
02:00 +15°C° 0 mm 2 mps 748 mmHg 77%
03:00 +15°C° 0 mm 2 mps 748 mmHg 77%
04:00 +14°C° 0 mm 2 mps 748 mmHg 76%
05:00 +16°C° 0 mm 3 mps 748 mmHg 71%
06:00 +18°C° 0 mm 3 mps 748 mmHg 66%
07:00 +19°C° 0 mm 3 mps 748 mmHg 62%
08:00 +21°C° 0 mm 3 mps 748 mmHg 57%
09:00 +24°C° 0 mm 3 mps 748 mmHg 52%
10:00 +26°C° 0 mm 4 mps 747 mmHg 47%
11:00 +26°C° 0 mm 4 mps 747 mmHg 45%
12:00 +27°C° 0 mm 4 mps 747 mmHg 44%
13:00 +28°C° 0 mm 5 mps 746 mmHg 42%
14:00 +27°C° 0.1 mm 5 mps 746 mmHg 49%
15:00 +26°C° 0.1 mm 5 mps 746 mmHg 55%
16:00 +25°C° 0.1 mm 5 mps 746 mmHg 62%
17:00 +22°C° 0.2 mm 4 mps 746 mmHg 67%
18:00 +20°C° 0.2 mm 4 mps 746 mmHg 72%
19:00 +19°C° 0.2 mm 3 mps 746 mmHg 77%
20:00 +18°C° 0 mm 3 mps 747 mmHg 78%
21:00 +16°C° 0 mm 3 mps 747 mmHg 79%
22:00 +15°C° 0 mm 2 mps 747 mmHg 80%
23:00 +14°C° 0 mm 3 mps 747 mmHg 81%
Show more